EW1423 Weather Reports


time (UTC)temp
C
wind
direction
speed
KPH
gust
KPH
rain 1hr
cm
rain 24hr
cm
rain mn
cm
humidity
%
barometer
mb
20260508023803 3 5 0.0 0.0 0.00 0.23 0.03 100 1016.7
20260508023303 3 5 0.0 0.0 0.00 0.23 0.03 100 1016.7
20260508022804 3 5 0.0 0.0 0.00 0.23 0.03 100 1016.7
20260508022306 3 5 0.0 0.0 0.00 0.23 0.03 100 1016.7
20260508021803 3 5 0.0 0.0 0.00 0.23 0.03 100 1016.7
20260508021304 3 5 0.0 0.0 0.00 0.23 0.03 100 1016.7
20260508020804 4 5 0.0 0.0 0.00 0.23 0.03 100 1016.6
20260508020303 4 5 0.0 0.0 0.00 0.23 0.03 100 1016.6
20260508015803 4 5 0.0 0.0 0.00 0.23 0.03 100 1016.6
20260508015306 4 5 0.0 0.0 0.00 0.23 0.03 100 1016.6
20260508014803 4 5 0.0 0.0 0.00 0.23 0.03 100 1016.6
20260508014304 4 5 0.0 0.0 0.00 0.25 0.03 100 1016.6
20260508013804 4 5 0.0 0.0 0.00 0.25 0.03 100 1016.6
20260508013304 4 5 0.0 0.0 0.00 0.28 0.03 100 1016.6
20260508012804 4 5 0.0 0.0 0.00 0.28 0.03 100 1016.6
20260508012307 4 5 0.0 0.0 0.00 0.28 0.03 100 1016.6
20260508011804 5 5 0.0 0.0 0.00 0.28 0.03 100 1016.6
20260508011303 5 5 0.0 0.0 0.00 0.30 0.03 100 1016.6
20260508010819 5 5 0.0 0.0 0.00 0.30 0.03 100 1016.7
20260508010303 5 5 0.0 0.0 0.00 0.33 0.03 100 1016.7
20260508005804 5 5 0.0 0.0 0.00 0.33 0.03 100 1016.7
20260508005305 5 5 0.0 0.0 0.00 0.33 0.03 100 1017.0
20260508004803 5 5 0.0 0.0 0.00 0.33 0.03 100 1017.0
20260508003803 5 5 0.0 0.0 0.00 0.33 0.03 100 1017.0
20260508002804 5 5 0.0 0.0 0.00 0.33 0.03 100 1017.0
20260508001804 5 5 0.0 0.0 0.00 0.33 0.03 100 1016.9
20260508001304 5 5 0.0 0.0 0.03 0.33 0.03 100 1016.9
20260508000804 5 5 0.0 0.0 0.03 0.33 0.03 100 1017.1
20260507235803 5 5 0.0 0.0 0.03 0.33 0.03 100 1017.1
20260507235306 5 5 0.0 0.0 0.03 0.33 0.03 100 1017.1
20260507234803 5 5 0.0 0.0 0.03 0.33 0.03 100 1017.1
20260507233803 5 5 0.0 0.0 0.03 0.33 0.03 100 1017.1
20260507233304 5 5 0.0 0.0 0.03 0.33 0.03 100 1017.1
20260507232804 5 5 0.0 0.0 0.03 0.33 0.03 100 1017.1
20260507232306 5 5 0.0 0.0 0.03 0.33 0.03 100 1017.3
20260507231804 5 5 0.0 0.0 0.03 0.33 0.03 100 1017.3
20260507230804 5 5 0.0 0.0 0.00 0.30 0.00 100 1017.3
20260507230305 5 5 0.0 0.0 0.00 0.30 0.00 100 1017.3
20260507225803 5 5 0.0 0.0 0.00 0.30 0.00 100 1017.3
20260507225306 5 5 0.0 0.0 0.00 0.30 0.00 100 1017.3
20260507224803 5 5 0.0 1.6 0.00 0.30 0.00 100 1017.1
20260507223304 6 5 0.0 0.0 0.00 0.30 0.00 100 1017.1
20260507222803 6 5 0.0 0.0 0.00 0.30 0.00 100 1017.1
20260507221804 6 5 0.0 0.0 0.00 0.30 0.00 100 1017.1
20260507221303 6 5 0.0 0.0 0.00 0.30 0.00 100 1017.1
20260507220810 6 5 0.0 0.0 0.00 0.30 0.00 100 1017.1
20260507220304 6 5 0.0 1.6 0.00 0.30 0.00 100 1017.1
20260507215306 6 5 0.0 0.0 0.00 0.30 0.30 100 1017.1
20260507214803 6 5 0.0 0.0 0.00 0.30 0.30 99 1017.1
20260507214304 6 5 0.0 0.0 0.00 0.30 0.30 99 1017.1
20260507213303 6 5 0.0 1.6 0.00 0.30 0.30 99 1017.1
20260507212804 6 5 0.0 0.0 0.00 0.30 0.30 99 1017.1
20260507211803 6 5 0.0 0.0 0.00 0.30 0.30 99 1017.1
20260507211303 6 5 0.0 0.0 0.00 0.30 0.30 99 1017.1
20260507210803 6 5 0.0 0.0 0.00 0.30 0.30 99 1017.0
20260507210303 6 5 0.0 0.0 0.00 0.30 0.30 99 1017.0
20260507205306 7 5 0.0 0.0 0.00 0.30 0.30 99 1017.0
20260507204804 7 5 0.0 0.0 0.00 0.30 0.30 98 1017.0
20260507204305 7 5 0.0 0.0 0.00 0.30 0.30 99 1016.9
20260507203804 7 5 0.0 0.0 0.00 0.30 0.30 98 1016.9
20260507203304 7 5 0.0 0.0 0.00 0.33 0.30 98 1016.9
20260507202803 7 5 0.0 0.0 0.00 0.33 0.30 97 1016.7
20260507202306 7 5 0.0 0.0 0.00 0.33 0.30 98 1016.7
20260507201804 7 5 0.0 0.0 0.00 0.33 0.30 98 1016.7
20260507201304 7 5 0.0 0.0 0.00 0.33 0.30 97 1016.7
20260507200804 7 5 0.0 0.0 0.00 0.33 0.30 96 1016.7
20260507200304 8 5 0.0 0.0 0.00 0.33 0.30 96 1016.6
20260507195306 8 5 0.0 0.0 0.00 0.33 0.30 96 1016.4
20260507194803 8 5 0.0 0.0 0.00 0.33 0.30 96 1016.4
20260507194304 8 5 0.0 0.0 0.00 0.33 0.30 95 1016.4
20260507193804 8 5 0.0 0.0 0.00 0.33 0.30 95 1016.4
20260507193304 8 5 0.0 0.0 0.00 0.33 0.30 95 1016.4
20260507192803 9 5 0.0 0.0 0.00 0.33 0.30 94 1016.4
20260507191804 9 5 0.0 0.0 0.00 0.33 0.30 94 1016.3
20260507191304 9 5 0.0 0.0 0.00 0.33 0.30 93 1016.3
20260507190804 9 5 0.0 0.0 0.00 0.33 0.30 92 1016.2
20260507190303 10 5 0.0 0.0 0.00 0.36 0.30 91 1016.2
20260507185804 10 5 0.0 0.0 0.00 0.36 0.30 90 1016.1
20260507185305 10 5 0.0 0.0 0.00 0.38 0.30 89 1016.1
20260507183804 11 5 0.0 1.6 0.00 0.41 0.30 84 1016.0
20260507183304 11 5 0.0 3.2 0.00 0.43 0.30 83 1015.9
20260507182804 12 5 0.0 1.6 0.00 0.43 0.30 82 1015.9
20260507182306 12 5 1.6 4.8 0.00 0.43 0.30 80 1015.7
20260507181804 12 9 1.6 4.8 0.00 0.43 0.30 80 1015.7
20260507180803 12 9 0.0 3.2 0.00 0.46 0.30 80 1015.7
20260507175306 12 311 1.6 3.2 0.00 0.46 0.30 79 1015.6
20260507174804 13 311 0.0 4.8 0.00 0.48 0.30 78 1015.6
20260507174304 13 9 1.6 4.8 0.00 0.48 0.30 78 1015.6
20260507173304 13 302 1.6 9.7 0.00 0.48 0.30 77 1015.6
20260507172307 13 8 1.6 4.8 0.00 0.51 0.30 78 1015.3
20260507171804 13 28 4.8 8.0 0.00 0.51 0.30 77 1015.3
20260507171304 13 41 1.6 8.0 0.00 0.53 0.30 77 1015.3
20260507170804 13 29 3.2 8.0 0.00 0.53 0.30 76 1015.3
20260507165803 14 309 3.2 11.3 0.00 0.56 0.30 75 1015.3
20260507165306 14 326 3.2 8.0 0.00 0.58 0.30 74 1015.3
20260507164303 13 17 3.2 8.0 0.00 0.58 0.30 75 1015.3
20260507163804 14 7 1.6 3.2 0.00 0.61 0.30 75 1015.2
20260507163303 14 294 1.6 8.0 0.00 0.61 0.30 74 1015.2
20260507162803 14 320 3.2 8.0 0.00 0.61 0.30 73 1015.2
20260507162306 15 36 1.6 4.8 0.00 0.61 0.30 73 1015.2
20260507161803 15 12 1.6 4.8 0.00 0.61 0.30 74 1015.2
20260507161303 14 343 1.6 4.8 0.00 0.61 0.30 74 1015.2
20260507160804 14 315 1.6 8.0 0.00 0.64 0.30 73 1015.2
20260507160304 14 271 3.2 9.7 0.00 0.66 0.30 74 1015.2
20260507155804 14 151 3.2 11.3 0.00 0.69 0.30 74 1015.2
20260507155306 14 345 3.2 9.7 0.00 0.71 0.30 74 1015.2
20260507154803 15 275 3.2 8.0 0.00 0.71 0.30 72 1015.2
20260507153803 15 342 1.6 8.0 0.00 0.74 0.30 71 1015.1
20260507153304 15 250 1.6 8.0 0.00 0.74 0.30 74 1015.1
20260507152804 15 29 3.2 9.7 0.00 0.74 0.30 74 1015.1
20260507152306 14 66 0.0 8.0 0.00 0.76 0.30 76 1015.1
20260507151803 15 285 3.2 9.7 0.00 0.76 0.30 75 1015.1
20260507151304 15 299 3.2 8.0 0.00 0.79 0.30 75 1015.1
20260507150803 14 120 1.6 3.2 0.00 0.79 0.30 75 1015.2
20260507150303 14 343 1.6 8.0 0.00 0.79 0.30 77 1015.2
20260507145803 13 25 3.2 8.0 0.00 0.79 0.30 76 1015.2
20260507145306 13 6 3.2 8.0 0.00 0.79 0.30 78 1015.2
20260507144804 13 325 1.6 3.2 0.00 0.79 0.30 77 1015.3
20260507144304 13 27 3.2 8.0 0.00 0.79 0.30 79 1015.3
20260507143803 13 287 1.6 8.0 0.00 0.79 0.30 77 1015.3
20260507143304 13 288 1.6 4.8 0.00 0.79 0.30 76 1015.2
20260507142804 14 311 3.2 12.9 0.00 0.79 0.30 75 1015.2
20260507142306 14 313 3.2 8.0 0.00 0.79 0.30 74 1015.2
20260507141803 14 292 4.8 12.9 0.00 0.79 0.30 73 1015.2
20260507140804 14 262 3.2 8.0 0.00 0.79 0.30 75 1015.2
20260507135306 14 282 3.2 8.0 0.00 0.79 0.30 73 1015.2
20260507134804 15 302 1.6 8.0 0.00 0.79 0.30 71 1015.2
20260507134303 15 281 3.2 8.0 0.00 0.79 0.30 70 1015.2
20260507133303 16 317 1.6 8.0 0.00 0.79 0.30 71 1015.2
20260507132804 15 337 0.0 4.8 0.00 0.79 0.30 72 1015.2
20260507132307 15 315 1.6 4.8 0.00 0.79 0.30 72 1015.2
20260507131803 14 318 3.2 8.0 0.00 0.79 0.30 74 1015.2
20260507131304 13 300 3.2 8.0 0.00 0.79 0.30 77 1015.0
20260507130804 13 291 3.2 9.7 0.00 0.79 0.30 76 1015.0
20260507130303 13 344 3.2 9.7 0.00 0.79 0.30 75 1015.0
20260507125306 15 289 3.2 8.0 0.00 0.79 0.30 75 1015.1
20260507124804 15 34 4.8 14.5 0.00 0.79 0.30 72 1015.1
20260507124304 14 38 3.2 8.0 0.00 0.79 0.30 73 1015.1
20260507123304 13 306 3.2 11.3 0.00 0.79 0.30 77 1015.1
20260507122307 15 334 1.6 8.0 0.00 0.79 0.30 74 1014.9
20260507121803 15 277 3.2 9.7 0.00 0.79 0.30 76 1014.9
20260507120304 15 294 1.6 4.8 0.00 0.79 0.30 72 1014.9
20260507115803 15 327 1.6 8.0 0.00 0.79 0.30 72 1014.9
20260507114804 14 129 3.2 8.0 0.00 0.79 0.30 74 1014.9
20260507114318 13 279 3.2 8.0 0.00 0.79 0.30 78 1014.9
20260507113803 13 318 1.6 3.2 0.00 0.79 0.30 74 1014.9
20260507113304 13 304 1.6 8.0 0.00 0.79 0.30 77 1014.9
20260507112804 13 301 1.6 9.7 0.00 0.79 0.30 74 1014.9
20260507112306 14 316 3.2 12.9 0.00 0.79 0.30 75 1014.9
20260507111803 15 270 3.2 11.3 0.00 0.79 0.30 72 1014.9
20260507110804 14 295 0.0 3.2 0.00 0.79 0.30 74 1015.1
20260507110303 14 293 1.6 3.2 0.00 0.79 0.30 78 1015.1
20260507105803 14 340 1.6 3.2 0.00 0.79 0.30 76 1015.1
20260507105306 13 340 1.6 3.2 0.00 0.79 0.30 79 1015.1
20260507104803 13 53 1.6 4.8 0.00 0.79 0.30 76 1015.1
20260507102803 12 10 1.6 4.8 0.00 0.79 0.30 85 1015.1
20260507102306 12 299 1.6 3.2 0.00 0.79 0.30 85 1015.0
20260507101804 11 292 1.6 4.8 0.00 0.79 0.30 86 1015.0
20260507101303 12 317 0.0 8.0 0.00 0.79 0.30 87 1015.0
20260507100804 12 309 1.6 8.0 0.00 0.79 0.30 85 1015.0
20260507100303 12 5 0.0 1.6 0.00 0.79 0.30 85 1015.0
20260507095803 12 5 1.6 3.2 0.00 0.79 0.30 87 1015.0
20260507094304 11 310 3.2 8.0 0.00 0.79 0.30 86 1014.8
20260507092803 11 266 1.6 8.0 0.00 0.79 0.30 87 1014.7
20260507092307 11 273 1.6 8.0 0.00 0.79 0.30 88 1014.7
20260507091804 11 328 3.2 8.0 0.00 0.79 0.30 87 1014.7
20260507091303 11 311 1.6 8.0 0.00 0.79 0.30 86 1014.5
20260507090804 11 236 3.2 11.3 0.00 0.79 0.30 87 1014.5
20260507090303 11 341 3.2 4.8 0.00 0.79 0.30 85 1014.5
20260507085804 12 286 3.2 4.8 0.00 0.79 0.30 88 1014.4
20260507084804 11 299 1.6 8.0 0.03 0.79 0.30 90 1014.4
20260507083803 11 287 1.6 4.8 0.03 0.79 0.30 89 1014.2
20260507083304 11 315 1.6 4.8 0.03 0.79 0.30 92 1014.2
20260507082803 11 246 1.6 8.0 0.03 0.79 0.30 91 1014.2
20260507082306 11 217 1.6 3.2 0.05 0.79 0.30 94 1014.2
20260507081803 11 236 0.0 8.0 0.05 0.79 0.30 93 1014.2
20260507081303 11 346 1.6 3.2 0.05 0.79 0.30 94 1014.0
20260507080804 11 346 1.6 4.8 0.05 0.79 0.30 94 1014.0
20260507075306 10 246 1.6 4.8 0.05 0.79 0.30 93 1014.0
20260507074304 10 325 1.6 4.8 0.05 0.76 0.28 95 1013.9
20260507073804 10 276 1.6 4.8 0.05 0.76 0.28 96 1013.4
20260507073303 10 261 0.0 3.2 0.05 0.76 0.28 97 1013.4
20260507072804 10 252 1.6 3.2 0.05 0.76 0.28 97 1013.4
20260507072306 10 314 1.6 3.2 0.05 0.74 0.25 96 1013.4
20260507071803 10 314 0.0 3.2 0.05 0.74 0.25 96 1013.4
20260507071303 10 314 0.0 3.2 0.05 0.74 0.25 97 1013.4
20260507070804 10 314 1.6 4.8 0.05 0.74 0.25 96 1013.4
20260507070304 10 314 1.6 4.8 0.05 0.71 0.23 96 1013.4
20260507065804 10 314 1.6 3.2 0.05 0.71 0.23 97 1013.4
20260507064803 10 286 1.6 4.8 0.05 0.71 0.23 97 1013.2
20260507064303 10 252 1.6 3.2 0.05 0.71 0.23 97 1013.2
20260507063803 10 250 0.0 3.2 0.05 0.71 0.23 98 1013.1
20260507063303 10 272 0.0 4.8 0.05 0.71 0.23 99 1013.1
20260507062803 10 280 0.0 3.2 0.05 0.71 0.23 99 1013.1
20260507062306 10 280 1.6 3.2 0.05 0.71 0.23 99 1013.1
20260507061804 10 280 0.0 3.2 0.05 0.71 0.23 99 1013.1
20260507061303 10 280 0.0 3.2 0.03 0.69 0.20 99 1013.1
20260507060803 10 280 0.0 1.6 0.03 0.69 0.20 98 1012.9
20260507060304 10 280 0.0 1.6 0.03 0.69 0.20 98 1012.9
20260507055804 10 280 1.6 4.8 0.03 0.69 0.20 98 1012.8
20260507055306 10 265 1.6 4.8 0.03 0.69 0.20 98 1012.8
20260507054803 10 293 0.0 4.8 0.03 0.66 0.18 97 1012.8
20260507054303 10 293 1.6 4.8 0.03 0.66 0.18 97 1012.7
20260507053804 10 290 1.6 3.2 0.03 0.66 0.18 97 1012.4
20260507053303 10 291 0.0 1.6 0.03 0.66 0.18 98 1012.4
20260507052804 10 291 1.6 4.8 0.03 0.66 0.18 98 1012.4
20260507052306 10 303 1.6 8.0 0.03 0.66 0.18 98 1012.4
20260507051804 10 178 0.0 3.2 0.03 0.66 0.18 98 1012.4
20260507051304 10 271 0.0 3.2 0.05 0.66 0.18 98 1012.4
20260507050304 10 271 0.0 3.2 0.05 0.66 0.18 98 1012.2
20260507045804 10 271 0.0 4.8 0.05 0.66 0.18 98 1012.2
20260507045306 10 271 1.6 3.2 0.05 0.66 0.18 98 1012.2
20260507044803 10 271 0.0 1.6 0.05 0.64 0.15 98 1012.1
20260507044304 9 271 1.6 4.8 0.05 0.64 0.15 98 1011.8
20260507043303 9 271 0.0 4.8 0.05 0.64 0.15 98 1011.8
20260507042804 9 271 1.6 3.2 0.05 0.64 0.15 98 1011.8
20260507041803 9 271 0.0 3.2 0.05 0.64 0.15 98 1011.8
20260507041304 9 271 1.6 3.2 0.05 0.61 0.15 98 1011.7
20260507035803 9 305 1.6 3.2 0.03 0.61 0.13 98 1011.6
20260507035306 9 305 0.0 3.2 0.03 0.61 0.13 98 1011.6
20260507034804 9 305 0.0 4.8 0.03 0.61 0.13 98 1011.6
20260507034304 10 311 1.6 4.8 0.03 0.61 0.13 98 1011.5
20260507033303 10 278 1.6 4.8 0.05 0.61 0.13 97 1011.3
20260507032803 10 224 1.6 3.2 0.05 0.61 0.13 97 1011.3
20260507032306 9 306 1.6 4.8 0.05 0.61 0.13 97 1011.3
20260507031804 9 300 1.6 4.8 0.05 0.61 0.13 97 1011.3
20260507031303 9 313 0.0 1.6 0.03 0.58 0.10 98 1011.3
20260507030303 10 266 0.0 4.8 0.03 0.58 0.10 97 1011.2
20260507025804 10 266 0.0 3.2 0.03 0.58 0.10 98 1011.1
20260507025306 10 266 1.6 8.0 0.03 0.58 0.10 97 1011.1
20260507024803 10 130 1.6 3.2 0.03 0.58 0.10 98 1011.1